EW2817 Weather Reports


time (UTC)temp
F
wind
direction
speed
knots
gust
knots
rain 1hr
in
rain 24hr
in
rain mn
in
humidity
%
barometer
mb
20260905064058 78 0 0.0 0.0 0.00 0.00 0.00 86 989.8
20260905062554 78 0 0.0 0.0 0.00 0.00 0.00 86 990.0
20260905061053 78 0 0.0 0.0 0.00 0.00 0.00 86 990.3
20260905055553 78 0 0.0 0.0 0.00 0.00 0.00 86 990.4
20260905054051 78 0 0.0 0.0 0.00 0.00 0.00 86 990.7
20260905052551 79 0 0.0 0.0 0.00 0.00 0.00 85 991.0
20260905052434 79 0 0.0 0.0 0.00 0.00 0.00 84 991.3
20260905045550 79 0 0.0 0.0 0.00 0.00 0.00 84 991.4
20260905044057 79 0 0.0 0.0 0.00 0.00 0.00 83 991.5
20260905042553 79 0 0.0 0.0 0.00 0.00 0.00 82 991.7
20260905041050 79 0 0.0 0.0 0.00 0.00 0.00 82 991.7
20260905035548 79 0 0.0 0.0 0.00 0.00 0.00 80 991.7
20260905034049 79 0 0.0 0.0 0.00 0.00 0.00 80 991.8
20260905032550 79 0 0.0 0.0 0.00 0.00 0.00 79 991.6
20260905031050 80 0 0.0 0.0 0.00 0.00 0.00 77 991.6
20260905025550 80 0 0.0 0.0 0.00 0.00 0.00 77 991.5
20260905024051 80 0 0.0 0.0 0.00 0.00 0.00 77 991.5
20260905023250 80 0 0.0 0.0 0.00 0.00 0.00 76 991.5
20260905021048 80 0 0.0 0.0 0.00 0.00 0.00 75 991.4
20260905015546 81 0 0.0 0.0 0.00 0.00 0.00 75 991.6
20260905014045 81 0 0.0 0.0 0.00 0.00 0.00 74 991.7
20260905012545 81 0 0.0 0.0 0.00 0.00 0.00 73 991.6
20260905011046 82 0 0.0 0.0 0.00 0.00 0.00 73 991.0
20260905005545 82 0 0.0 0.0 0.00 0.00 0.00 71 989.5
20260905004744 82 0 0.0 0.0 0.00 0.00 0.00 70 989.1
20260905002543 83 0 0.0 0.0 0.00 0.00 0.00 69 989.3
20260905001043 83 0 0.0 0.0 0.00 0.00 0.00 68 989.5
20260904235543 84 0 0.0 0.0 0.00 0.00 0.00 71 989.8
20260904234043 84 0 0.0 0.0 0.00 0.00 0.00 73 990.0
20260904232541 85 0 0.0 0.0 0.00 0.00 0.00 74 990.3
20260904231041 86 0 0.0 0.0 0.00 0.00 0.00 72 990.1
20260904225540 86 0 0.0 0.0 0.00 0.00 0.00 75 989.6
20260904224039 87 0 0.0 0.0 0.00 0.00 0.00 75 989.4
20260904222540 88 0 0.0 0.0 0.00 0.00 0.00 74 989.7
20260904221039 88 0 0.0 0.0 0.00 0.00 0.00 75 989.6
20260904215537 88 0 0.0 0.0 0.00 0.00 0.00 74 989.6
20260904214035 89 0 0.0 0.0 0.00 0.00 0.00 72 989.7
20260904212534 89 0 0.0 0.0 0.00 0.00 0.00 71 989.6
20260904211033 90 0 0.0 0.0 0.00 0.00 0.00 70 989.6
20260904205533 90 0 0.0 0.0 0.00 0.00 0.00 68 989.5
20260904204031 92 0 0.0 0.0 0.00 0.00 0.00 63 989.4
20260904203225 94 0 0.0 0.0 0.00 0.00 0.00 57 989.5
20260904201727 96 0 0.0 0.0 0.00 0.00 0.00 53 989.7
20260904200226 97 0 0.0 0.0 0.00 0.00 0.00 60 990.3
20260904194025 97 0 0.0 0.0 0.00 0.00 0.00 57 990.4
20260904192523 98 0 0.0 0.0 0.00 0.00 0.00 54 990.6
20260904191023 97 0 0.0 0.0 0.00 0.00 0.00 55 990.4
20260904190224 99 0 0.0 0.0 0.00 0.00 0.00 52 990.8
20260904184712 100 0 0.0 0.0 0.00 0.00 0.00 53 991.1
20260904182523 99 0 0.0 0.0 0.00 0.00 0.00 51 991.3
20260904181022 100 0 0.0 0.0 0.00 0.00 0.00 52 991.4
20260904180216 100 0 0.0 0.0 0.00 0.00 0.00 55 991.6
20260904174020 99 0 0.0 0.0 0.00 0.00 0.00 53 991.8
20260904172521 99 0 0.0 0.0 0.00 0.00 0.00 54 991.9
20260904171019 99 0 0.0 0.0 0.00 0.00 0.00 56 991.9
20260904165513 99 0 0.0 0.0 0.00 0.00 0.00 58 992.0
20260904164014 98 0 0.0 0.0 0.00 0.00 0.00 56 992.2
20260904162502 98 0 0.0 0.0 0.00 0.00 0.00 62 992.5
20260904161001 96 0 0.0 0.0 0.00 0.00 0.00 62 992.8
20260904160147 94 0 0.0 0.0 0.00 0.00 0.00 64 992.8
20260904153954 94 0 0.0 0.0 0.00 0.00 0.00 68 992.9
20260904152454 92 0 0.0 0.0 0.00 0.00 0.00 67 992.9
20260904150954 92 0 0.0 0.0 0.00 0.00 0.00 70 992.9
20260904145455 90 0 0.0 0.0 0.00 0.00 0.00 72 993.0
20260904143952 89 0 0.0 0.0 0.00 0.00 0.00 75 993.0
20260904143150 87 0 0.0 0.0 0.00 0.00 0.00 78 993.1
20260904140949 86 0 0.0 0.0 0.00 0.00 0.00 80 993.0
20260904135446 84 0 0.0 0.0 0.00 0.00 0.00 85 992.9
20260904134639 82 0 0.0 0.0 0.00 0.00 0.00 87 992.8
20260904133144 80 0 0.0 0.0 0.00 0.00 0.00 89 993.0
20260904130942 79 0 0.0 0.0 0.00 0.00 0.00 91 993.0
20260904125442 78 0 0.0 0.0 0.00 0.00 0.00 92 993.1
20260904124633 77 0 0.0 0.0 0.00 0.00 0.00 92 993.2
20260904122442 77 0 0.0 0.0 0.00 0.00 0.00 93 993.2
20260904120942 76 0 0.0 0.0 0.00 0.00 0.00 93 993.2
20260904115441 76 0 0.0 0.0 0.00 0.00 0.00 93 993.1
20260904114636 76 0 0.0 0.0 0.00 0.00 0.00 93 993.0
20260904112438 76 0 0.0 0.0 0.00 0.00 0.00 92 993.0
20260904110938 76 0 0.0 0.0 0.00 0.00 0.00 92 992.9
20260904105436 76 0 0.0 0.0 0.00 0.00 0.00 91 992.7
20260904103934 76 0 0.0 0.0 0.00 0.00 0.00 91 992.7
20260904102430 77 0 0.0 0.0 0.00 0.00 0.00 91 992.8
20260904100927 77 0 0.0 0.0 0.00 0.00 0.00 90 992.8
20260904095428 77 0 0.0 0.0 0.00 0.00 0.00 90 992.7
20260904094627 77 0 0.0 0.0 0.00 0.00 0.00 89 992.6
20260904092427 78 0 0.0 0.0 0.00 0.00 0.00 89 992.6
20260904090925 78 0 0.0 0.0 0.00 0.00 0.00 89 992.6
20260904090122 78 0 0.0 0.0 0.00 0.00 0.00 88 992.4
20260904083926 78 0 0.0 0.0 0.00 0.00 0.00 88 992.2
20260904082431 78 0 0.0 0.0 0.00 0.00 0.00 88 992.0
20260904080925 78 0 0.0 0.0 0.00 0.00 0.00 88 992.0
20260904075426 78 0 0.0 0.0 0.00 0.00 0.00 88 992.2
20260904073925 78 0 0.0 0.0 0.00 0.00 0.00 88 992.1
20260904072426 79 0 0.0 0.0 0.00 0.00 0.00 87 992.0
20260904070924 79 0 0.0 0.0 0.00 0.00 0.00 87 992.1
20260904070112 79 0 0.0 0.0 0.00 0.00 0.00 86 992.3